THOR ABLESTAR DEB, 330

Orbit data source: Space-Track

THOR ABLESTAR DEB, 330 is space debris in LEO originally from a launch on Thu, 29 Jun 1961 UTC launched from the Air Force Eastern Test Range (AFETR). Debris objects in space refer to the collection of defunct objects orbiting the Earth. Examples of debris include non-operational satellites, rocket bodies, and fragments generated from explosions, collisions, or faulty payload assembly.

Loading next visibility...
Identifier
330, 1961-015DG
Orbit
LEO
Country
Flag of USUS
Related business
Manufacturer
Unknown
Mission
Spacecraft
Bus & Motor
Unknown
Mass
Unknown
Launch date (UTC)
1961-06-29 (64 years ago)
Launch vehicle
Unknown
Launch site
Air Force Eastern Test Range (AFETR)
Object type
Payload
Rocket body
Debris
Shape & HBR
Unknown
Radar Cross Section
Small (<0.1 m²)

Expand to show TLE details & history
Last TLE update: 10 hours ago

TLE from 10 hours ago
0 THOR ABLESTAR DEB
1 00330U 61015DG  25258.04652372  .00000632  00000-0  42642-3 0  9992
2 00330  66.9776 268.3990 0052986 317.2176  42.4793 14.06170340258014
Epoch: 2025-09-15T01:06Z
TLE epoch observation values (Epoch: 2025-09-15T01:06:59.649Z)
Latitude
-0.00003°
Longitude
-102.60635°
Altitude
846.367 km
Speed
7.444 km/s
True Right ascension
17h 53m 35s
True Declination
0° 00' 00"
Sunlit
Object was in daylight at epoch
Visualization orbit readout
Latitude
Unknown
Longitude
Unknown
Altitude
Unknown
Speed
Unknown
Apparent Right ascension
Unknown
Apparent Declination
Unknown
Sunlit
N/A
Visualization observer readout
Local Sidereal Time
04:08:38
Azimuth
Unknown
Elevation
Unknown
Doppler factor
Unknown
Orbital elements
Apogee altitude
909.277 km
Perigee altitude
832.458 km
Semi-major axis
7,249.005 km
Eccentricity
0.0053
Inclination
66.9776°
RAAN
268.399°
Arg. of periapsis
317.2176°
True anomaly
42.89135°
Mean anomaly
42.4793°
Eccentric anomaly
42.68512°
Mean motion
3.51662 °/min
Orbital period
102.37 mins
BSTAR
0.00042642
Loading maneuver chart data...
Computing Atmospheric mass density...

Documentation

Showing up to 5 results
|